{"data":{"norad_id":68284,"epoch":"2026-05-24T21:37:50.548800Z","epoch_age_seconds":94231,"freshness":"FRESH","line1":"1 68284U 26055Y   26144.90127950  .00034321  00000+0  10222-2 0  9997","line2":"2 68284  53.1602 326.4079 0001118  89.6625 270.4506 15.34400985 11583","mean_motion":15.34400985,"eccentricity":0.0001118,"inclination_deg":53.1602,"raan_deg":326.4079,"arg_perigee_deg":89.6625,"mean_anomaly_deg":270.4506,"bstar":0.0010222,"rev_number":1158,"period_min":93.847697836299,"perigee_km":461.93550696954,"apogee_km":463.46511819264,"semimajor_km":6840.8373125811,"source":"CELESTRAK","updated_at":"2026-05-25T13:38:21.894920Z"}}